When you browse on this site, cookies collect data to enhance your experience and personalize the content and advertising you see.
Visit our Privacy Policy to learn more. By continuing to use the site, you agree to this use of cookies and data.
  • Em Portugal
  • Lista de países
  • Para 7 dias
  • Temperatura da água
  • Mapa do tempo
  • Widgets de tempo
  • user-avatar
    Iniciar Sessão

    Previsão horária em Batina

    Hoje, 23 Outubro, Quarta-feira

    Tempo Temperatura Precipitação Vento Pressão Humidade
    00:00 +21°C° 0 mm 9 m/s 667 mmHg 50%
    01:00 +21°C° 0 mm 9 m/s 667 mmHg 50%
    02:00 +20°C° 0 mm 8 m/s 667 mmHg 51%
    03:00 +20°C° 0 mm 8 m/s 666 mmHg 51%
    04:00 +20°C° 0 mm 8 m/s 666 mmHg 51%
    05:00 +18°C° 0 mm 7 m/s 666 mmHg 52%
    06:00 +18°C° 0 mm 7 m/s 666 mmHg 54%
    07:00 +21°C° 0 mm 9 m/s 667 mmHg 46%
    08:00 +23°C° 0 mm 12 m/s 668 mmHg 38%
    09:00 +26°C° 0 mm 14 m/s 669 mmHg 30%
    10:00 +26°C° 0 mm 14 m/s 668 mmHg 29%
    11:00 +26°C° 0 mm 14 m/s 668 mmHg 28%
    12:00 +26°C° 0 mm 13 m/s 668 mmHg 28%
    13:00 +24°C° 0 mm 12 m/s 668 mmHg 26%
    14:00 +24°C° 0 mm 12 m/s 668 mmHg 24%
    15:00 +23°C° 0 mm 11 m/s 668 mmHg 22%
    16:00 +21°C° 0 mm 8 m/s 668 mmHg 29%
    17:00 +19°C° 0 mm 6 m/s 668 mmHg 36%
    18:00 +16°C° 0 mm 3 m/s 668 mmHg 42%
    19:00 +15°C° 0 mm 2 m/s 668 mmHg 47%
    20:00 +15°C° 0 mm 2 m/s 668 mmHg 52%
    21:00 +14°C° 0 mm 1 m/s 668 mmHg 57%
    22:00 +13°C° 0 mm 1 m/s 668 mmHg 61%
    23:00 +13°C° 0 mm 1 m/s 668 mmHg 66%

    Amanhã, 24 Outubro, Quinta-feira

    Tempo Temperatura Precipitação Vento Pressão Humidade
    00:00 +12°C° 0 mm 1 m/s 668 mmHg 70%
    01:00 +12°C° 0 mm 1 m/s 668 mmHg 73%
    02:00 +12°C° 0 mm 1 m/s 668 mmHg 76%
    03:00 +11°C° 0 mm 1 m/s 668 mmHg 78%
    04:00 +11°C° 0 mm 1 m/s 668 mmHg 80%
    05:00 +11°C° 0 mm 1 m/s 668 mmHg 81%
    06:00 +10°C° 0 mm 1 m/s 668 mmHg 83%
    07:00 +12°C° 0 mm 1 m/s 669 mmHg 68%
    08:00 +13°C° 0 mm 2 m/s 669 mmHg 53%
    09:00 +14°C° 0 mm 2 m/s 670 mmHg 38%
    10:00 +14°C° 0 mm 3 m/s 670 mmHg 37%
    11:00 +15°C° 0 mm 4 m/s 670 mmHg 36%
    12:00 +17°C° 0 mm 4 m/s 670 mmHg 35%
    13:00 +16°C° 0 mm 5 m/s 670 mmHg 36%
    14:00 +16°C° 0 mm 6 m/s 670 mmHg 37%
    15:00 +16°C° 0 mm 6 m/s 670 mmHg 38%
    16:00 +15°C° 0 mm 5 m/s 670 mmHg 43%
    17:00 +14°C° 0 mm 4 m/s 670 mmHg 47%
    18:00 +13°C° 0 mm 4 m/s 670 mmHg 52%
    19:00 +12°C° 0 mm 3 m/s 670 mmHg 57%
    20:00 +13°C° 0 mm 2 m/s 671 mmHg 62%
    21:00 +12°C° 0 mm 2 m/s 671 mmHg 68%
    22:00 +10°C° 0 mm 2 m/s 671 mmHg 69%
    23:00 +10°C° 0 mm 2 m/s 671 mmHg 71%

    Depois de amanhã, 25 Outubro, Sexta-feira

    Tempo Temperatura Precipitação Vento Pressão Humidade
    00:00 +9°C° 0 mm 2 m/s 671 mmHg 73%
    01:00 +9°C° 0 mm 2 m/s 670 mmHg 74%
    02:00 +9°C° 0 mm 2 m/s 670 mmHg 75%
    03:00 +9°C° 0 mm 2 m/s 670 mmHg 76%
    04:00 +9°C° 0 mm 2 m/s 670 mmHg 78%
    05:00 +9°C° 0 mm 2 m/s 671 mmHg 80%
    06:00 +9°C° 0 mm 2 m/s 671 mmHg 82%
    07:00 +10°C° 0 mm 3 m/s 671 mmHg 78%
    08:00 +11°C° 0 mm 3 m/s 672 mmHg 73%
    09:00 +12°C° 0 mm 3 m/s 673 mmHg 69%
    10:00 +12°C° 0 mm 3 m/s 673 mmHg 66%
    11:00 +13°C° 0 mm 3 m/s 672 mmHg 62%
    12:00 +14°C° 0 mm 3 m/s 672 mmHg 59%
    13:00 +14°C° 0 mm 3 m/s 672 mmHg 58%
    14:00 +14°C° 0 mm 4 m/s 672 mmHg 57%
    15:00 +14°C° 0 mm 4 m/s 672 mmHg 57%
    16:00 +13°C° 0 mm 3 m/s 672 mmHg 61%
    17:00 +13°C° 0 mm 3 m/s 672 mmHg 65%
    18:00 +12°C° 0 mm 3 m/s 672 mmHg 70%
    19:00 +12°C° 0 mm 3 m/s 672 mmHg 71%
    20:00 +11°C° 0 mm 3 m/s 672 mmHg 72%
    21:00 +12°C° 0 mm 2 m/s 672 mmHg 74%
    22:00 +12°C° 0 mm 2 m/s 672 mmHg 76%
    23:00 +12°C° 0 mm 2 m/s 672 mmHg 79%

    26 Outubro, Sábado

    Tempo Temperatura Precipitação Vento Pressão Humidade
    00:00 +10°C° 0 mm 2 m/s 671 mmHg 82%
    01:00 +10°C° 0 mm 2 m/s 671 mmHg 82%
    02:00 +10°C° 0 mm 2 m/s 671 mmHg 83%
    03:00 +9°C° 0 mm 2 m/s 670 mmHg 84%
    04:00 +9°C° 0 mm 2 m/s 670 mmHg 83%
    05:00 +9°C° 0 mm 2 m/s 670 mmHg 82%
    06:00 +9°C° 0 mm 2 m/s 670 mmHg 82%
    07:00 +12°C° 0 mm 2 m/s 670 mmHg 74%
    08:00 +13°C° 0 mm 2 m/s 671 mmHg 66%
    09:00 +14°C° 0 mm 2 m/s 672 mmHg 58%
    10:00 +14°C° 0.1 mm 3 m/s 671 mmHg 56%
    11:00 +15°C° 0.1 mm 4 m/s 671 mmHg 54%
    12:00 +15°C° 0.1 mm 4 m/s 671 mmHg 52%
    13:00 +14°C° 0.7 mm 4 m/s 671 mmHg 59%
    14:00 +13°C° 0.7 mm 3 m/s 670 mmHg 66%
    15:00 +14°C° 0.7 mm 2 m/s 670 mmHg 73%
    16:00 +13°C° 1 mm 2 m/s 670 mmHg 76%
    17:00 +13°C° 1 mm 2 m/s 670 mmHg 79%
    18:00 +13°C° 1 mm 2 m/s 670 mmHg 81%
    19:00 +12°C° 0.2 mm 1 m/s 670 mmHg 83%
    20:00 +12°C° 0.2 mm 1 m/s 670 mmHg 84%
    21:00 +12°C° 0.2 mm 1 m/s 670 mmHg 85%
    22:00 +12°C° 0 mm 1 m/s 670 mmHg 86%
    23:00 +11°C° 0 mm 1 m/s 670 mmHg 88%

    27 Outubro, Domingo

    Tempo Temperatura Precipitação Vento Pressão Humidade
    00:00 +11°C° 0 mm 1 m/s 670 mmHg 89%
    01:00 +11°C° 0 mm 1 m/s 670 mmHg 90%
    02:00 +10°C° 0 mm 1 m/s 670 mmHg 91%
    03:00 +10°C° 0 mm 1 m/s 669 mmHg 91%
    04:00 +10°C° 0 mm 1 m/s 669 mmHg 91%
    05:00 +10°C° 0 mm 1 m/s 669 mmHg 90%
    06:00 +10°C° 0 mm 1 m/s 669 mmHg 90%
    07:00 +11°C° 0.1 mm 1 m/s 670 mmHg 81%
    08:00 +12°C° 0.1 mm 1 m/s 671 mmHg 72%
    09:00 +13°C° 0.1 mm 1 m/s 671 mmHg 63%
    10:00 +14°C° 0 mm 1 m/s 671 mmHg 59%
    11:00 +15°C° 0 mm 1 m/s 671 mmHg 56%
    12:00 +16°C° 0 mm 2 m/s 671 mmHg 52%
    13:00 +16°C° 0.1 mm 1 m/s 670 mmHg 53%
    14:00 +16°C° 0.1 mm 1 m/s 670 mmHg 54%
    15:00 +16°C° 0.1 mm 1 m/s 670 mmHg 54%
    16:00 +15°C° 0.1 mm 1 m/s 670 mmHg 59%
    17:00 +14°C° 0.1 mm 1 m/s 670 mmHg 65%
    18:00 +14°C° 0.1 mm 1 m/s 670 mmHg 70%
    19:00 +13°C° 0 mm 1 m/s 670 mmHg 72%
    20:00 +13°C° 0 mm 1 m/s 670 mmHg 75%
    21:00 +12°C° 0 mm 1 m/s 670 mmHg 78%
    22:00 +12°C° 0 mm 1 m/s 670 mmHg 80%
    23:00 +11°C° 0 mm 1 m/s 669 mmHg 82%

    28 Outubro, Segunda-feira

    Tempo Temperatura Precipitação Vento Pressão Humidade
    00:00 +10°C° 0 mm 0 m/s 669 mmHg 85%
    01:00 +10°C° 0 mm 0 m/s 669 mmHg 86%
    02:00 +9°C° 0 mm 0 m/s 669 mmHg 87%
    03:00 +9°C° 0 mm 0 m/s 669 mmHg 88%
    04:00 +10°C° 0 mm 1 m/s 669 mmHg 88%
    05:00 +10°C° 0 mm 1 m/s 669 mmHg 88%
    06:00 +10°C° 0 mm 1 m/s 669 mmHg 88%
    07:00 +11°C° 0 mm 1 m/s 669 mmHg 82%
    08:00 +13°C° 0 mm 1 m/s 670 mmHg 76%
    09:00 +14°C° 0 mm 2 m/s 670 mmHg 70%
    10:00 +15°C° 0 mm 2 m/s 670 mmHg 65%
    11:00 +15°C° 0 mm 2 m/s 670 mmHg 61%
    12:00 +16°C° 0 mm 2 m/s 670 mmHg 57%
    13:00 +16°C° 0 mm 2 m/s 670 mmHg 56%
    14:00 +17°C° 0 mm 3 m/s 670 mmHg 55%
    15:00 +17°C° 0 mm 3 m/s 669 mmHg 55%
    16:00 +16°C° 0 mm 2 m/s 670 mmHg 59%
    17:00 +15°C° 0 mm 2 m/s 670 mmHg 64%
    18:00 +15°C° 0 mm 2 m/s 670 mmHg 69%
    19:00 +14°C° 0 mm 2 m/s 670 mmHg 73%
    20:00 +14°C° 0 mm 1 m/s 670 mmHg 78%
    21:00 +13°C° 0 mm 1 m/s 670 mmHg 82%
    22:00 +13°C° 0 mm 1 m/s 670 mmHg 85%
    23:00 +12°C° 0 mm 1 m/s 670 mmHg 87%

    29 Outubro, Terça-feira

    Tempo Temperatura Precipitação Vento Pressão Humidade
    00:00 +12°C° 0 mm 1 m/s 670 mmHg 90%
    01:00 +12°C° 0 mm 1 m/s 669 mmHg 90%
    02:00 +11°C° 0 mm 1 m/s 669 mmHg 91%
    03:00 +11°C° 0 mm 1 m/s 669 mmHg 92%
    04:00 +11°C° 0 mm 1 m/s 669 mmHg 91%
    05:00 +11°C° 0 mm 1 m/s 669 mmHg 91%
    06:00 +10°C° 0 mm 1 m/s 669 mmHg 91%
    07:00 +12°C° 0 mm 1 m/s 670 mmHg 81%
    08:00 +13°C° 0 mm 0 m/s 671 mmHg 72%
    09:00 +15°C° 0 mm 0 m/s 671 mmHg 62%
    10:00 +18°C° 0 mm 1 m/s 671 mmHg 56%
    11:00 +19°C° 0 mm 1 m/s 672 mmHg 49%
    12:00 +19°C° 0 mm 2 m/s 672 mmHg 43%
    13:00 +19°C° 0 mm 2 m/s 672 mmHg 42%
    14:00 +19°C° 0 mm 3 m/s 671 mmHg 41%
    15:00 +19°C° 0 mm 3 m/s 671 mmHg 40%
    16:00 +18°C° 0 mm 2 m/s 671 mmHg 45%
    17:00 +17°C° 0 mm 2 m/s 671 mmHg 50%
    18:00 +16°C° 0 mm 1 m/s 671 mmHg 56%
    19:00 +15°C° 0 mm 1 m/s 671 mmHg 58%
    20:00 +15°C° 0 mm 1 m/s 672 mmHg 60%
    21:00 +14°C° 0 mm 1 m/s 672 mmHg 63%
    22:00 +13°C° 0 mm 0 m/s 672 mmHg 65%
    23:00 +12°C° 0 mm 0 m/s 671 mmHg 66%
    Mostrar mais